EHI
1 1 1 1 0 1 2 2 1 1 4 9 12 13 15 16 18 17 14 13 16 21 26 28 29 30 27 26 26 27 26 25 25 27 27 25 23 22 21 19 18 17 16 14
1 1 2 2 1 0 1 1 1 2 5 10 14 16 16 17 18 17 13 12 13 18 23 26 27 28 27 26 26 27 26 24 24 24 24 23 22 21 21 19 17 16 14 13
1 2 3 2 1 1 0 1 2 4 8 13 17 17 17 16 16 13 9 8 10 14 21 24 25 27 27 26 26 27 26 24 22 21 20 19 18 19 20 19 16 14 13 12
2 3 2 2 2 2 2 3 5 7 10 14 15 12 11 12 11 8 4 4 7 12 19 23 24 24 25 25 25 24 23 22 20 19 18 17 16 17 19 18 15 14 13 12
2 2 2 2 2 2 4 7 9 10 11 12 10 7 6 6 6 4 2 3 7 12 18 21 21 21 21 22 22 20 18 18 17 16 16 15 14 15 16 15 14 13 12 11
1 1 2 2 2 2 4 7 10 11 11 10 7 5 4 3 3 3 4 6 9 12 17 19 19 17 17 17 16 15 14 15 15 14 15 14 14 15 13 10 10 9 8 8
0 1 2 3 2 2 3 6 9 11 12 10 7 4 3 3 4 6 8 10 12 13 15 16 15 15 14 13 12 11 12 13 14 14 14 14 14 13 10 7 6 6 5 5
0 1 2 2 2 2 3 4 7 9 10 9 6 3 3 5 8 9 11 13 14 13 13 13 12 11 12 10 9 9 9 11 11 12 12 13 12 10 6 4 3 4 4 4
0 0 1 1 1 1 1 2 3 5 6 5 5 3 3 6 10 11 12 14 14 13 12 12 10 9 9 7 6 6 7 7 9 10 9 9 10 8 4 2 2 2 4 5
0 0 0 1 1 1 0 0 1 2 3 4 5 5 4 6 9 11 11 12 11 11 11 10 8 6 5 3 2 3 4 5 7 8 6 6 7 7 5 3 2 3 4 4
0 0 0 1 1 1 1 2 2 2 3 4 5 5 4 4 5 6 8 8 9 10 10 7 4 2 1 0 0 1 2 3 5 6 5 5 4 4 3 3 2 2 2 2
0 0 0 0 0 1 2 3 3 4 4 4 3 3 2 2 2 2 3 5 6 7 6 4 1 0 0 0 0 0 0 1 2 3 4 4 3 3 1 1 1 1 1 1
0 0 0 0 0 2 3 3 3 3 3 3 2 1 1 1 1 1 2 3 3 3 2 2 1 0 0 0 0 0 0 0 1 2 2 3 3 2 1 0 1 1 0 0
0 0 0 0 0 1 3 3 1 1 2 2 2 2 1 2 3 3 3 2 2 1 1 1 1 1 1 1 1 2 1 0 0 1 1 1 3 3 1 1 2 2 1 1
0 0 0 0 0 1 2 2 1 0 1 1 1 1 1 2 3 4 4 2 2 3 2 2 2 2 2 2 3 3 2 1 0 0 0 1 2 3 3 3 3 3 3 2
0 0 0 0 0 0 1 1 1 0 0 0 0 0 0 1 1 2 3 3 3 3 3 3 3 3 3 3 3 3 2 1 0 0 0 0 1 2 4 4 3 3 3 2
0 0 0 0 0 0 0 0 0 0 0 0 0 0 0 0 0 1 2 3 3 3 3 3 2 3 3 3 4 3 2 1 0 0 0 0 1 2 4 4 3 2 1 1
0 0 0 0 0 0 0 0 0 0 0 0 0 0 0 0 0 1 2 3 4 3 3 2 1 2 3 3 4 3 1 0 0 1 2 2 3 5 5 4 3 2 1 0
0 0 0 0 0 0 0 0 0 0 0 0 0 0 0 0 0 1 3 4 4 4 3 2 2 2 3 3 2 2 1 0 1 3 4 4 4 5 5 4 3 2 1 1
0 0 0 0 0 0 0 0 0 0 0 0 0 0 0 1 1 2 3 4 4 3 3 3 3 3 3 2 1 0 0 1 3 4 4 4 4 4 4 3 4 4 4 3
0 0 0 0 0 0 0 0 0 0 0 0 0 0 1 2 3 3 4 4 3 3 3 2 3 3 3 2 1 0 1 2 3 4 4 4 3 3 3 3 4 5 5 5
0 0 0 0 0 0 0 0 0 0 0 0 0 0 1 2 3 3 3 3 3 3 2 2 2 2 2 1 0 0 1 2 3 4 5 5 4 3 2 2 3 3 3 4
0 0 0 0 0 0 0 0 0 0 0 0 0 0 1 2 2 1 1 2 2 1 1 2 1 0 0 0 0 0 1 3 3 4 5 5 3 1 1 1 1 1 1 2
0 0 0 0 0 0 0 0 1 2 1 1 0 1 2 2 1 1 1 1 1 0 1 1 0 0 0 0 0 1 2 3 3 3 4 4 1 0 0 0 0 0 0 1
0 0 1 1 0 0 0 0 1 2 2 1 1 1 1 1 1 1 2 2 1 1 1 1 1 0 0 0 2 3 3 2 1 2 3 3 1 1 0 0 0 0 0 0
0 0 1 1 1 1 0 0 1 1 1 1 1 1 1 2 2 3 3 3 2 2 2 3 2 1 1 2 3 4 3 2 1 1 3 3 3 2 1 1 1 0 0 0
0 0 0 1 1 1 0 0 0 0 0 0 1 2 2 3 3 3 3 3 3 3 3 3 3 2 2 3 4 4 3 2 2 2 3 3 3 3 2 2 2 1 0 0
Wind_Speed
12 11 10 11 12 11 10 10 9 7 4 2 1 2 4 4 3 3 3 3 3 2 2 1 2 2 2 2 2 2 2 3 3 2 2 2 1 1 2 2 3 2 2 2
12 12 12 12 11 11 10 9 9 7 3 3 4 4 4 4 3 3 3 3 2 1 1 1 1 1 2 2 2 2 2 2 3 2 2 2 1 1 1 1 1 2 2 2
11 11 11 11 9 10 8 7 7 4 1 4 4 5 5 4 4 3 3 3 3 2 1 1 0 1 1 2 2 2 2 2 2 2 2 2 2 1 1 1 1 1 1 1
9 9 12 4 4 5 4 3 1 0 2 3 4 5 5 5 4 3 4 3 3 2 1 0 1 1 1 2 3 3 3 2 2 2 2 1 1 1 1 1 1 1 1 2
7 10 9 4 4 5 5 1 2 1 2 3 3 4 5 6 5 4 4 4 3 2 1 2 1 1 1 2 3 3 3 2 3 2 2 1 1 1 1 1 1 1 2 2
7 9 8 3 5 6 4 1 4 4 4 3 1 0 3 6 5 5 5 4 4 3 3 3 2 1 1 2 2 2 2 1 1 1 1 1 1 1 1 1 1 2 2 2
9 9 4 3 5 5 3 2 5 6 6 6 5 4 4 5 5 4 4 4 4 3 3 3 2 2 1 1 0 1 1 1 1 1 2 2 2 2 2 2 2 3 3 2
7 8 4 4 3 3 4 5 5 6 6 6 5 5 4 4 4 4 5 5 4 4 4 3 3 2 2 2 1 0 0 1 0 0 1 1 2 2 2 3 3 4 3 3
2 1 2 5 5 5 4 4 4 4 4 4 4 3 3 4 4 4 4 4 4 4 4 3 3 3 2 2 2 1 1 1 1 1 0 1 1 2 2 2 2 2 2 2
2 1 0 3 5 4 3 3 3 3 3 3 3 3 3 3 3 3 4 3 3 3 3 3 3 2 2 2 2 2 2 1 1 0 0 0 0 1 1 1 1 1 1 1
4 1 1 2 3 3 3 2 2 2 2 2 3 3 3 2 2 2 2 2 2 2 2 2 2 2 2 2 2 2 2 1 1 1 0 1 1 0 1 0 0 1 1 1
4 1 1 1 1 1 2 2 2 3 3 3 3 3 3 2 2 2 1 1 1 1 2 2 2 2 2 2 2 2 2 1 1 1 0 1 1 0 1 1 2 1 1 1
3 2 1 1 1 1 1 1 2 2 2 2 2 2 2 1 1 1 1 1 1 1 1 1 1 2 2 2 2 2 2 2 1 1 1 1 1 1 1 1 2 1 1 2
1 2 2 2 2 2 1 1 2 2 2 1 1 1 1 1 1 1 1 1 1 1 1 1 1 1 1 1 1 1 1 1 1 2 2 2 1 2 2 2 1 2 3 4
3 3 3 3 3 2 1 1 1 1 2 1 1 1 1 2 2 2 2 1 1 1 0 0 1 1 1 1 1 1 2 2 1 2 3 2 2 2 2 1 0 0 1 2
3 2 3 3 4 3 2 2 2 1 1 2 2 2 2 2 2 2 2 1 1 1 1 1 0 0 1 1 1 1 2 2 2 3 4 3 3 2 2 1 1 0 0 1
4 3 4 4 4 3 3 2 2 1 1 1 1 2 2 2 2 2 1 1 1 1 1 1 1 0 1 1 2 2 3 2 3 4 4 3 3 2 2 2 2 1 0 2
4 4 4 4 4 3 3 2 2 2 2 1 1 1 1 1 2 1 1 1 0 0 0 0 0 1 2 2 3 3 3 3 3 3 3 2 3 3 2 2 2 2 0 2
4 4 4 4 4 3 3 2 2 2 1 1 1 1 2 1 1 1 1 1 1 1 1 0 1 2 2 2 3 3 4 3 3 2 3 3 3 3 2 2 2 1 1 0
4 4 4 4 4 3 2 2 2 2 2 1 1 2 2 2 2 2 1 2 1 1 1 0 2 2 2 2 4 4 4 4 4 2 2 3 3 3 2 2 2 2 1 1
2 2 3 3 3 2 2 2 2 1 1 1 2 2 2 2 2 1 2 2 0 1 2 2 2 2 2 3 4 4 3 4 4 3 3 3 3 3 3 3 3 3 2 2
2 2 2 1 2 2 2 2 2 2 1 1 1 1 2 2 2 2 2 1 0 1 2 1 0 2 3 5 4 4 3 4 3 3 3 3 3 2 2 3 3 2 2 2
1 2 2 2 2 2 2 2 3 2 2 2 2 2 2 2 2 2 2 1 1 1 2 1 1 1 3 4 4 4 3 3 3 3 3 3 2 2 2 3 3 2 2 2
2 2 2 2 2 2 2 2 3 2 3 2 2 2 2 2 2 2 1 1 1 2 2 0 1 2 3 4 4 4 3 3 3 3 3 3 3 2 2 2 2 3 3 3
3 3 3 3 3 3 3 3 3 3 3 3 3 3 3 2 2 2 1 1 1 2 3 3 5 5 5 5 4 3 3 3 3 3 3 3 3 3 3 3 3 3 3 3
3 3 2 3 3 2 3 3 3 2 3 3 2 2 2 2 2 2 2 2 3 3 3 2 3 4 4 4 3 2 2 2 2 2 2 2 3 3 3 3 4 3 3 3
4 3 2 3 3 3 3 3 2 3 2 2 3 2 2 2 2 2 2 2 2 3 3 3 3 3 3 3 2 2 2 2 2 2 2 2 2 2 2 3 3 3 3 3
Wind_Direction
272 272 268 268 267 265 258 253 256 255 230 157 96 81 85 68 59 81 82 70 63 61 62 77 98 111 141 149 151 155 167 170 164 165 166 184 193 213 223 229 228 216 220 207
273 268 273 268 265 262 263 263 254 249 247 98 83 57 74 74 56 45 43 37 23 48 64 34 104 152 150 150 152 165 181 186 167 169 177 194 205 216 227 248 251 234 227 213
271 275 277 261 262 252 253 262 269 268 6 67 69 60 49 46 58 38 20 7 1 10 7 334 274 148 154 163 166 178 187 189 180 178 193 202 220 204 219 248 252 247 240 215
270 272 259 261 314 290 260 273 293 68 66 72 65 73 65 49 48 24 6 0 356 352 341 358 77 125 165 184 180 187 193 201 197 199 201 173 169 187 212 245 261 264 245 222
264 264 257 252 289 295 285 303 28 38 80 71 93 104 75 49 41 30 11 3 358 359 88 102 99 126 189 202 192 199 199 202 205 207 193 170 180 183 192 225 254 264 260 237
256 263 266 299 321 303 276 160 36 35 54 55 38 307 48 46 41 31 21 15 18 30 63 72 73 94 196 218 191 202 213 210 165 165 167 184 186 182 196 220 243 253 255 254
252 259 273 328 314 296 253 71 43 48 51 46 39 47 64 50 40 32 34 26 28 41 62 57 54 70 54 27 101 213 230 147 130 164 185 190 179 181 202 220 227 232 231 237
254 254 261 348 357 18 61 56 45 48 55 58 62 66 64 56 42 30 36 34 30 41 51 43 38 46 44 21 15 16 71 89 94 203 224 181 167 191 209 220 229 226 218 220
317 348 31 41 56 61 63 57 47 40 44 63 71 71 66 61 47 32 33 31 24 29 48 45 37 35 32 15 11 45 76 82 17 317 287 213 189 199 231 237 245 230 211 212
241 181 0 66 67 61 48 42 35 31 42 52 53 69 68 61 50 36 29 30 26 35 49 43 38 34 32 22 22 55 70 58 52 329 220 213 218 224 231 233 248 263 260 248
272 249 317 21 38 35 37 33 38 55 48 48 71 59 63 58 43 41 32 29 25 32 41 54 44 37 32 35 35 41 52 39 9 313 230 159 210 268 243 328 223 252 289 294
288 297 287 307 334 11 4 9 21 35 36 40 47 48 48 50 33 34 32 26 33 28 27 51 56 48 51 50 46 33 18 7 352 338 295 205 195 119 34 169 149 150 210 281
297 310 290 291 300 355 330 350 357 2 7 19 18 6 16 49 46 10 17 24 22 23 29 41 42 32 44 55 55 36 357 337 314 316 315 274 232 215 252 224 205 215 233 251
263 279 259 252 269 314 319 312 323 336 343 347 343 355 20 13 14 10 2 349 347 344 35 55 43 31 29 28 41 27 328 324 306 301 289 281 274 267 253 243 212 209 220 231
253 249 246 243 248 251 261 262 282 305 307 321 339 348 5 10 359 353 355 325 345 335 335 91 80 37 25 20 353 311 290 286 295 302 296 298 293 283 281 275 289 120 120 182
241 239 237 243 246 250 266 268 265 275 308 330 335 346 7 9 356 355 347 320 303 320 340 354 51 38 338 328 325 289 278 287 298 294 292 292 285 290 300 323 339 2 51 74
232 237 243 247 246 246 257 267 262 261 295 321 358 5 6 357 349 348 348 18 51 26 4 355 340 322 308 313 298 283 279 261 241 265 270 274 287 298 306 310 296 280 53 98
231 235 230 236 245 240 244 246 251 256 271 284 324 351 337 324 318 327 324 330 334 309 71 116 16 292 292 301 298 291 293 287 263 261 273 285 287 284 285 284 286 288 253 153
231 230 230 236 239 238 239 236 242 256 260 260 285 296 290 296 304 291 297 296 301 306 321 35 293 278 287 314 315 288 285 293 295 288 291 287 280 288 287 295 310 312 311 276
206 209 218 219 215 209 219 229 224 236 250 249 253 260 269 279 278 267 259 271 293 333 309 284 262 271 279 306 300 291 304 307 298 299 303 304 311 319 324 324 316 318 322 305
217 219 225 214 190 187 199 211 217 228 245 246 244 259 273 277 272 260 259 266 340 7 283 229 240 280 314 321 291 292 306 310 312 314 305 301 302 306 313 321 327 335 335 337
226 234 241 225 181 181 186 189 198 203 204 233 244 266 274 261 247 246 254 274 252 324 284 254 270 21 338 306 287 290 298 302 307 309 304 301 301 309 315 316 315 322 337 338
245 247 250 231 203 203 201 195 198 204 216 226 235 251 253 280 278 264 268 285 287 282 281 318 71 38 325 295 290 296 301 300 304 307 312 320 326 327 314 311 312 321 333 326
255 247 249 237 222 225 224 217 207 206 211 219 219 212 218 238 253 257 255 198 221 235 262 170 182 217 246 269 279 292 305 308 309 313 319 323 324 313 309 322 335 340 335 334
276 264 245 226 219 224 232 226 210 206 209 209 210 199 202 217 243 258 247 239 197 216 242 211 213 227 248 269 277 289 309 327 328 330 325 332 329 329 336 338 339 335 332 340
263 255 242 241 240 238 230 216 203 204 220 215 213 204 208 211 225 231 228 233 233 232 254 239 226 230 251 271 284 301 311 308 300 299 315 318 315 328 349 349 345 349 343 337
257 240 234 239 225 226 237 226 210 211 219 226 223 215 221 229 231 236 243 250 240 238 250 254 251 251 261 277 295 310 324 322 319 312 310 318 336 348 343 344 352 0 353 351